^^

..:: Storico WU ::..




Lo storico viene creato da WUnderground con i dati che la stazione Meteomincio invia al loro server. L' aggiornamento viene fatto ogni 5 minuti circa, tuttavia possono esserci intervalli pił ampi a causa di errori, interruzioni di servizio o problemi nell' invio tramite FTP.


Storico stazione MeteoMincio
Giorno Sommario per Giugno 23, 2022 Unità:  Inglese    Metrico   Entrambi
Giorno Settimana Mese Anno
  Max: Min: Media:
Temperatura: 89.6 °F 68 °F 79.3 °F
Dew Point: 73.4 °F 66.2 °F 68.7 °F
Umidità: 92% 50% 72%
Velocità vento: 11.8mph 1.2mph 5.3mph
Raffica: 18.6mph - -
Direzione- - WSW
Pressione: 29.9 in 29.8 in -
Precipitazioni: 0 in    
 
 
Tabulato Dati per Giugno 23, 2022
Ora Temperatura Dew Point Pressione Direzione Velocità vento Raffica Umidità Intensità pioggia (oraria) Info solare Situazione
00:04 73.4 °F 69.8 °F 29.8 in NW 2.5 mph 3.7 mph 85% 0 in 0.00 W/m2 unknown
00:09 73.4 °F 69.8 °F 29.8 in NW 3.1 mph 3.7 mph 85% 0 in 0.00 W/m2 unknown
00:14 73.4 °F 69.8 °F 29.8 in NW 2.5 mph 3.7 mph 84% 0 in 0.00 W/m2 unknown
00:19 73.4 °F 69.8 °F 29.8 in WNW 1.2 mph 3.7 mph 84% 0 in 0.00 W/m2 unknown
00:24 73.4 °F 69.8 °F 29.8 in West 1.9 mph 3.7 mph 85% 0 in 0.00 W/m2 unknown
00:29 73.4 °F 69.8 °F 29.8 in West 1.9 mph 3.7 mph 86% 0 in 0.00 W/m2 unknown
00:34 73.4 °F 68 °F 29.9 in West 3.1 mph 3.7 mph 86% 0 in 0.00 W/m2 unknown
00:39 73.4 °F 68 °F 29.9 in West 3.7 mph 5 mph 87% 0 in 0.00 W/m2 unknown
00:44 71.6 °F 68 °F 29.9 in West 3.7 mph 5 mph 87% 0 in 0.00 W/m2 unknown
00:49 71.6 °F 68 °F 29.9 in West 3.1 mph 3.7 mph 87% 0 in 0.00 W/m2 unknown
00:54 71.6 °F 68 °F 29.9 in West 3.1 mph 3.7 mph 87% 0 in 0.00 W/m2 unknown
00:59 71.6 °F 68 °F 29.9 in WSW 3.1 mph 3.7 mph 88% 0 in 0.00 W/m2 unknown
01:04 71.6 °F 68 °F 29.9 in WSW 3.7 mph 3.7 mph 88% 0 in 0.00 W/m2 unknown
01:09 71.6 °F 68 °F 29.8 in WSW 3.1 mph 3.7 mph 88% 0 in 0.00 W/m2 unknown
01:14 71.6 °F 68 °F 29.8 in WSW 3.1 mph 3.7 mph 88% 0 in 0.00 W/m2 unknown
01:19 71.6 °F 68 °F 29.8 in WSW 3.1 mph 3.7 mph 88% 0 in 0.00 W/m2 unknown
01:23 71.6 °F 68 °F 29.8 in WSW 3.1 mph 3.7 mph 88% 0 in 0.00 W/m2 unknown
01:29 71.6 °F 68 °F 29.8 in WSW 3.1 mph 3.7 mph 89% 0 in 0.00 W/m2 unknown
01:34 71.6 °F 68 °F 29.8 in WSW 3.1 mph 3.7 mph 89% 0 in 0.00 W/m2 unknown
01:39 71.6 °F 68 °F 29.8 in WSW 3.7 mph 5 mph 89% 0 in 0.00 W/m2 unknown
01:44 71.6 °F 68 °F 29.8 in WSW 3.7 mph 4.3 mph 89% 0 in 0.00 W/m2 unknown
01:49 71.6 °F 68 °F 29.8 in WSW 3.1 mph 6.2 mph 89% 0 in 0.00 W/m2 unknown
01:54 71.6 °F 68 °F 29.8 in WSW 5 mph 6.2 mph 89% 0 in 0.00 W/m2 unknown
01:59 71.6 °F 68 °F 29.8 in SW 5 mph 6.2 mph 89% 0 in 0.00 W/m2 unknown
02:04 71.6 °F 68 °F 29.8 in WSW 5 mph 6.8 mph 88% 0 in 0.00 W/m2 unknown
02:09 71.6 °F 68 °F 29.8 in SW 5 mph 6.8 mph 88% 0 in 0.00 W/m2 unknown
02:11 71.6 °F 68 °F 29.8 in SW 5 mph 6.8 mph 88% 0 in 0.00 W/m2 unknown
02:16 71.6 °F 68 °F 29.8 in SW 5 mph 6.8 mph 88% 0 in 0.00 W/m2 unknown
02:24 71.6 °F 68 °F 29.9 in SW 5 mph 6.8 mph 89% 0 in 0.00 W/m2 unknown
02:29 71.6 °F 68 °F 29.8 in WSW 5 mph 6.8 mph 89% 0 in 0.00 W/m2 unknown
02:34 71.6 °F 68 °F 29.8 in SW 5 mph 6.2 mph 89% 0 in 0.00 W/m2 unknown
02:39 71.6 °F 68 °F 29.8 in WSW 5 mph 6.2 mph 89% 0 in 0.00 W/m2 unknown
02:44 71.6 °F 68 °F 29.8 in WSW 3.7 mph 5 mph 89% 0 in 0.00 W/m2 unknown
02:49 69.8 °F 68 °F 29.8 in WSW 3.7 mph 5 mph 89% 0 in 0.00 W/m2 unknown
02:54 69.8 °F 66.2 °F 29.8 in WSW 3.7 mph 5 mph 89% 0 in 0.00 W/m2 unknown
02:59 69.8 °F 66.2 °F 29.8 in WSW 3.1 mph 5 mph 90% 0 in 0.00 W/m2 unknown
03:04 69.8 °F 66.2 °F 29.8 in West 3.1 mph 5 mph 90% 0 in 0.00 W/m2 unknown
03:09 69.8 °F 66.2 °F 29.8 in West 3.1 mph 5 mph 90% 0 in 0.00 W/m2 unknown
03:14 69.8 °F 66.2 °F 29.8 in WSW 3.1 mph 5 mph 90% 0 in 0.00 W/m2 unknown
03:19 69.8 °F 66.2 °F 29.8 in WSW 3.1 mph 3.7 mph 90% 0 in 0.00 W/m2 unknown
03:21 69.8 °F 66.2 °F 29.8 in WSW 3.1 mph 3.7 mph 91% 0 in 0.00 W/m2 unknown
03:26 69.8 °F 66.2 °F 29.8 in WSW 3.1 mph 3.7 mph 91% 0 in 0.00 W/m2 unknown
03:34 69.8 °F 66.2 °F 29.8 in WSW 3.1 mph 3.7 mph 91% 0 in 0.00 W/m2 unknown
03:38 69.8 °F 66.2 °F 29.8 in WSW 3.1 mph 5 mph 91% 0 in 0.00 W/m2 unknown
03:44 69.8 °F 66.2 °F 29.8 in WSW 3.1 mph 5 mph 91% 0 in 0.00 W/m2 unknown
03:47 69.8 °F 66.2 °F 29.8 in West 3.1 mph 5 mph 91% 0 in 0.00 W/m2 unknown
03:54 69.8 °F 66.2 °F 29.8 in West 3.1 mph 5 mph 91% 0 in 0.00 W/m2 unknown
03:57 68 °F 66.2 °F 29.8 in WSW 2.5 mph 4.3 mph 91% 0 in 0.00 W/m2 unknown
04:00 68 °F 66.2 °F 29.8 in West 1.9 mph 5 mph 91% 0 in 0.00 W/m2 unknown
04:08 68 °F 66.2 °F 29.8 in West 3.1 mph 3.7 mph 92% 0 in 0.00 W/m2 unknown
04:14 68 °F 66.2 °F 29.8 in West 3.1 mph 3.7 mph 92% 0 in 0.00 W/m2 unknown
04:18 68 °F 66.2 °F 29.8 in WSW 2.5 mph 3.7 mph 92% 0 in 0.00 W/m2 unknown
04:24 68 °F 66.2 °F 29.8 in West 3.1 mph 5 mph 92% 0 in 0.00 W/m2 unknown
04:28 68 °F 66.2 °F 29.8 in WSW 3.1 mph 5 mph 92% 0 in 0.00 W/m2 unknown
04:34 68 °F 66.2 °F 29.9 in West 3.1 mph 3.7 mph 92% 0 in 0.00 W/m2 unknown
04:38 68 °F 66.2 °F 29.9 in WNW 2.5 mph 3.7 mph 92% 0 in 0.00 W/m2 unknown
04:44 68 °F 66.2 °F 29.9 in WNW 3.1 mph 5 mph 92% 0 in 0.00 W/m2 unknown
04:48 69.8 °F 66.2 °F 29.9 in WNW 3.1 mph 5 mph 92% 0 in 0.00 W/m2 unknown
04:54 69.8 °F 66.2 °F 29.9 in WNW 3.1 mph 4.3 mph 91% 0 in 0.00 W/m2 unknown
04:58 69.8 °F 66.2 °F 29.9 in NW 2.5 mph 3.7 mph 91% 0 in 0.00 W/m2 unknown
05:03 69.8 °F 66.2 °F 29.9 in West 3.1 mph 3.7 mph 91% 0 in 0.00 W/m2 unknown
05:09 69.8 °F 66.2 °F 29.9 in WNW 2.5 mph 3.7 mph 91% 0 in 0.00 W/m2 unknown
05:14 68 °F 66.2 °F 29.9 in West 2.5 mph 3.7 mph 91% 0 in 0.00 W/m2 unknown
05:16 68 °F 66.2 °F 29.9 in West 2.5 mph 3.7 mph 91% 0 in 0.00 W/m2 unknown
05:24 68 °F 66.2 °F 29.9 in West 2.5 mph 3.7 mph 92% 0 in 0.00 W/m2 unknown
05:29 68 °F 66.2 °F 29.9 in West 2.5 mph 3.7 mph 92% 0 in 0.00 W/m2 unknown
05:34 68 °F 66.2 °F 29.9 in West 2.5 mph 3.7 mph 92% 0 in 0.00 W/m2 unknown
05:39 68 °F 66.2 °F 29.9 in West 2.5 mph 3.7 mph 92% 0 in 5.00 W/m2 unknown
05:44 68 °F 66.2 °F 29.9 in West 2.5 mph 3.7 mph 92% 0 in 9.00 W/m2 unknown
05:49 68 °F 66.2 °F 29.9 in West 2.5 mph 3.7 mph 92% 0 in 12.00 W/m2 unknown
05:54 68 °F 66.2 °F 29.9 in West 2.5 mph 3.7 mph 92% 0 in 14.00 W/m2 unknown
05:59 68 °F 66.2 °F 29.9 in WSW 2.5 mph 3.7 mph 92% 0 in 18.00 W/m2 unknown
06:04 68 °F 66.2 °F 29.9 in West 1.9 mph 3.7 mph 92% 0 in 23.00 W/m2 unknown
06:08 68 °F 66.2 °F 29.9 in West 2.5 mph 3.7 mph 92% 0 in 26.00 W/m2 unknown
06:14 68 °F 66.2 °F 29.9 in West 1.9 mph 3.7 mph 92% 0 in 26.00 W/m2 unknown
06:16 68 °F 66.2 °F 29.9 in West 1.9 mph 3.7 mph 92% 0 in 26.00 W/m2 unknown
06:21 68 °F 66.2 °F 29.9 in WSW 1.9 mph 3.7 mph 92% 0 in 35.00 W/m2 unknown
06:26 68 °F 66.2 °F 29.9 in WSW 1.9 mph 3.1 mph 92% 0 in 37.00 W/m2 unknown
06:34 69.8 °F 66.2 °F 29.9 in WSW 1.9 mph 3.7 mph 92% 0 in 53.00 W/m2 unknown
06:39 69.8 °F 66.2 °F 29.9 in West 2.5 mph 3.7 mph 92% 0 in 60.00 W/m2 unknown
06:44 69.8 °F 66.2 °F 29.9 in West 2.5 mph 3.7 mph 92% 0 in 67.00 W/m2 unknown
06:49 69.8 °F 68 °F 29.9 in West 3.1 mph 3.7 mph 92% 0 in 76.00 W/m2 unknown
06:53 69.8 °F 68 °F 29.9 in West 3.1 mph 3.7 mph 92% 0 in 84.00 W/m2 unknown
06:59 69.8 °F 68 °F 29.9 in WSW 2.5 mph 6.2 mph 92% 0 in 95.00 W/m2 unknown
07:04 69.8 °F 68 °F 29.9 in WSW 3.7 mph 6.8 mph 92% 0 in 100.00 W/m2 unknown
07:09 69.8 °F 68 °F 29.9 in WSW 4.3 mph 6.8 mph 91% 0 in 111.00 W/m2 unknown
07:11 69.8 °F 68 °F 29.9 in WSW 4.3 mph 6.8 mph 91% 0 in 113.00 W/m2 unknown
07:19 71.6 °F 68 °F 29.9 in WSW 4.3 mph 6.8 mph 91% 0 in 132.00 W/m2 unknown
07:24 71.6 °F 68 °F 29.9 in WSW 3.1 mph 6.8 mph 90% 0 in 142.00 W/m2 unknown
07:29 71.6 °F 68 °F 29.9 in WSW 3.1 mph 5 mph 90% 0 in 153.00 W/m2 unknown
07:34 71.6 °F 68 °F 29.9 in West 3.1 mph 6.2 mph 90% 0 in 165.00 W/m2 unknown
07:39 71.6 °F 68 °F 29.9 in West 5 mph 6.2 mph 90% 0 in 176.00 W/m2 unknown
07:44 71.6 °F 68 °F 29.9 in West 5 mph 6.2 mph 90% 0 in 188.00 W/m2 unknown
07:49 71.6 °F 68 °F 29.9 in West 5 mph 6.2 mph 89% 0 in 200.00 W/m2 unknown
07:54 73.4 °F 69.8 °F 29.9 in West 5 mph 6.2 mph 89% 0 in 211.00 W/m2 unknown
07:59 73.4 °F 69.8 °F 29.9 in West 5 mph 6.2 mph 89% 0 in 227.00 W/m2 unknown
08:04 73.4 °F 69.8 °F 29.9 in West 5 mph 6.8 mph 89% 0 in 239.00 W/m2 unknown
08:09 73.4 °F 69.8 °F 29.9 in WNW 4.3 mph 6.8 mph 88% 0 in 253.00 W/m2 unknown
08:13 73.4 °F 69.8 °F 29.9 in WSW 4.3 mph 6.8 mph 88% 0 in 265.00 W/m2 unknown
08:19 75.2 °F 69.8 °F 29.9 in WSW 3.7 mph 5 mph 87% 0 in 285.00 W/m2 unknown
08:24 75.2 °F 69.8 °F 29.9 in WSW 4.3 mph 6.2 mph 87% 0 in 302.00 W/m2 unknown
08:29 75.2 °F 69.8 °F 29.9 in WSW 4.3 mph 5.6 mph 86% 0 in 325.00 W/m2 unknown
08:34 75.2 °F 69.8 °F 29.9 in WSW 5 mph 6.8 mph 86% 0 in 339.00 W/m2 unknown
08:39 75.2 °F 71.6 °F 29.9 in WNW 5 mph 6.8 mph 85% 0 in 373.00 W/m2 unknown
08:44 77 °F 71.6 °F 29.9 in NW 3.1 mph 6.2 mph 85% 0 in 394.00 W/m2 unknown
08:49 77 °F 71.6 °F 29.9 in WNW 3.1 mph 3.7 mph 84% 0 in 420.00 W/m2 unknown
08:54 77 °F 71.6 °F 29.9 in WNW 3.1 mph 6.2 mph 82% 0 in 422.00 W/m2 unknown
08:59 77 °F 71.6 °F 29.9 in West 3.7 mph 6.2 mph 81% 0 in 452.00 W/m2 unknown
09:04 77 °F 71.6 °F 29.9 in West 3.7 mph 5 mph 81% 0 in 452.00 W/m2 unknown
09:09 77 °F 71.6 °F 29.9 in WNW 5 mph 6.2 mph 81% 0 in 438.00 W/m2 unknown
09:14 78.8 °F 71.6 °F 29.9 in WNW 5 mph 6.2 mph 80% 0 in 483.00 W/m2 unknown
09:19 78.8 °F 71.6 °F 29.9 in NNW 5 mph 6.2 mph 80% 0 in 519.00 W/m2 unknown
09:24 78.8 °F 71.6 °F 29.9 in NW 3.1 mph 6.2 mph 79% 0 in 450.00 W/m2 unknown
09:29 78.8 °F 71.6 °F 29.9 in NW 3.7 mph 6.8 mph 77% 0 in 454.00 W/m2 unknown
09:34 80.6 °F 71.6 °F 29.9 in WNW 4.3 mph 6.8 mph 76% 0 in 466.00 W/m2 unknown
09:39 80.6 °F 71.6 °F 29.9 in WNW 4.3 mph 6.8 mph 76% 0 in 466.00 W/m2 unknown
09:44 80.6 °F 71.6 °F 29.9 in West 5.6 mph 8.1 mph 75% 0 in 427.00 W/m2 unknown
09:49 80.6 °F 71.6 °F 29.9 in West 5.6 mph 8.1 mph 74% 0 in 575.00 W/m2 unknown
09:54 80.6 °F 71.6 °F 29.9 in West 6.2 mph 8.1 mph 74% 0 in 506.00 W/m2 unknown
09:59 80.6 °F 71.6 °F 29.9 in West 5 mph 8.1 mph 74% 0 in 515.00 W/m2 unknown
10:04 80.6 °F 71.6 °F 29.9 in WNW 5.6 mph 8.7 mph 73% 0 in 592.00 W/m2 unknown
10:09 80.6 °F 71.6 °F 29.9 in WNW 6.2 mph 8.7 mph 73% 0 in 650.00 W/m2 unknown
10:14 82.4 °F 71.6 °F 29.9 in West 6.2 mph 8.1 mph 73% 0 in 712.00 W/m2 unknown
10:19 82.4 °F 71.6 °F 29.9 in WNW 6.2 mph 8.1 mph 72% 0 in 652.00 W/m2 unknown
10:24 82.4 °F 71.6 °F 29.9 in West 5.6 mph 8.7 mph 72% 0 in 596.00 W/m2 unknown
10:29 82.4 °F 71.6 °F 29.9 in West 6.2 mph 8.7 mph 71% 0 in 708.00 W/m2 unknown
10:34 82.4 °F 71.6 °F 29.9 in West 6.8 mph 9.3 mph 71% 0 in 603.00 W/m2 unknown
10:39 82.4 °F 71.6 °F 29.9 in WSW 6.8 mph 9.3 mph 72% 0 in 628.00 W/m2 unknown
10:44 82.4 °F 71.6 °F 29.9 in West 6.8 mph 9.3 mph 72% 0 in 594.00 W/m2 unknown
10:49 82.4 °F 71.6 °F 29.9 in WNW 6.2 mph 9.3 mph 71% 0 in 230.00 W/m2 unknown
10:54 82.4 °F 71.6 °F 29.9 in WNW 6.8 mph 9.3 mph 71% 0 in 761.00 W/m2 unknown
10:59 82.4 °F 71.6 °F 29.9 in NW 6.2 mph 8.7 mph 70% 0 in 761.00 W/m2 unknown
11:04 82.4 °F 71.6 °F 29.9 in West 6.2 mph 6.8 mph 70% 0 in 786.00 W/m2 unknown
11:09 82.4 °F 71.6 °F 29.9 in West 6.2 mph 6.8 mph 70% 0 in 786.00 W/m2 unknown
11:14 84.2 °F 71.6 °F 29.9 in WNW 6.2 mph 8.7 mph 71% 0 in 777.00 W/m2 unknown
11:19 84.2 °F 71.6 °F 29.9 in WNW 8.1 mph 11.8 mph 70% 0 in 765.00 W/m2 unknown
11:24 84.2 °F 71.6 °F 29.9 in WNW 8.1 mph 11.8 mph 68% 0 in 664.00 W/m2 unknown
11:29 84.2 °F 73.4 °F 29.9 in NW 8.1 mph 11.8 mph 70% 0 in 838.00 W/m2 unknown
11:34 84.2 °F 73.4 °F 29.9 in NW 6.8 mph 10.6 mph 68% 0 in 838.00 W/m2 unknown
11:39 84.2 °F 73.4 °F 29.9 in West 6.2 mph 10.6 mph 67% 0 in 895.00 W/m2 unknown
11:44 86 °F 73.4 °F 29.9 in WNW 6.2 mph 10.6 mph 68% 0 in 888.00 W/m2 unknown
11:49 86 °F 73.4 °F 29.9 in WNW 5.6 mph 6.8 mph 68% 0 in 888.00 W/m2 unknown
11:54 86 °F 71.6 °F 29.9 in WNW 5.6 mph 6.8 mph 66% 0 in 997.00 W/m2 unknown
11:59 86 °F 71.6 °F 29.9 in WNW 6.8 mph 11.2 mph 65% 0 in 751.00 W/m2 unknown
12:04 86 °F 71.6 °F 29.9 in NW 7.5 mph 11.8 mph 64% 0 in 817.00 W/m2 unknown
12:09 86 °F 71.6 °F 29.9 in WNW 6.8 mph 11.8 mph 63% 0 in 807.00 W/m2 unknown
12:14 86 °F 73.4 °F 29.9 in WNW 6.2 mph 9.3 mph 65% 0 in 810.00 W/m2 unknown
12:19 86 °F 73.4 °F 29.9 in WNW 6.2 mph 8.7 mph 64% 0 in 810.00 W/m2 unknown
12:24 86 °F 71.6 °F 29.9 in WNW 5 mph 6.8 mph 62% 0 in 809.00 W/m2 unknown
12:29 86 °F 71.6 °F 29.9 in WNW 5 mph 8.1 mph 62% 0 in 805.00 W/m2 unknown
12:34 86 °F 71.6 °F 29.9 in West 6.2 mph 10.6 mph 62% 0 in 809.00 W/m2 unknown
12:39 86 °F 71.6 °F 29.9 in West 6.2 mph 10.6 mph 62% 0 in 814.00 W/m2 unknown
12:44 87.8 °F 73.4 °F 29.9 in West 6.2 mph 10.6 mph 64% 0 in 821.00 W/m2 unknown
12:49 87.8 °F 73.4 °F 29.9 in NW 6.2 mph 11.8 mph 62% 0 in 814.00 W/m2 unknown
12:54 87.8 °F 71.6 °F 29.9 in WNW 6.2 mph 11.8 mph 59% 0 in 831.00 W/m2 unknown
12:59 87.8 °F 71.6 °F 29.9 in WNW 6.2 mph 11.8 mph 59% 0 in 837.00 W/m2 unknown
13:04 87.8 °F 71.6 °F 29.9 in West 6.2 mph 8.1 mph 61% 0 in 867.00 W/m2 unknown
13:09 87.8 °F 71.6 °F 29.9 in WSW 5 mph 8.1 mph 61% 0 in 889.00 W/m2 unknown
13:14 87.8 °F 71.6 °F 29.9 in SW 6.8 mph 9.3 mph 60% 0 in 853.00 W/m2 unknown
13:17 87.8 °F 71.6 °F 29.9 in SW 6.8 mph 9.3 mph 59% 0 in 649.00 W/m2 unknown
13:24 87.8 °F 71.6 °F 29.9 in WSW 6.8 mph 9.3 mph 58% 0 in 868.00 W/m2 unknown
13:29 89.6 °F 71.6 °F 29.9 in WNW 6.2 mph 8.1 mph 58% 0 in 856.00 W/m2 unknown
13:34 89.6 °F 71.6 °F 29.9 in WSW 7.5 mph 11.8 mph 55% 0 in 800.00 W/m2 unknown
13:39 89.6 °F 71.6 °F 29.9 in WSW 7.5 mph 11.8 mph 58% 0 in 708.00 W/m2 unknown
13:44 87.8 °F 71.6 °F 29.9 in West 6.8 mph 11.8 mph 58% 0 in 919.00 W/m2 unknown
13:49 87.8 °F 71.6 °F 29.9 in WSW 6.2 mph 8.1 mph 57% 0 in 919.00 W/m2 unknown
13:54 87.8 °F 69.8 °F 29.9 in West 5 mph 9.3 mph 57% 0 in 506.00 W/m2 unknown
13:59 87.8 °F 69.8 °F 29.9 in WSW 6.8 mph 9.3 mph 58% 0 in 471.00 W/m2 unknown
14:04 87.8 °F 69.8 °F 29.9 in WSW 6.8 mph 9.3 mph 58% 0 in 471.00 W/m2 unknown
14:09 87.8 °F 71.6 °F 29.9 in WSW 6.2 mph 9.3 mph 59% 0 in 443.00 W/m2 unknown
14:14 87.8 °F 69.8 °F 29.9 in WSW 6.2 mph 9.3 mph 59% 0 in 554.00 W/m2 unknown
14:19 87.8 °F 71.6 °F 29.9 in WSW 6.2 mph 9.3 mph 59% 0 in 531.00 W/m2 unknown
14:24 87.8 °F 71.6 °F 29.9 in WSW 6.2 mph 11.2 mph 59% 0 in 531.00 W/m2 unknown
14:29 87.8 °F 71.6 °F 29.9 in WSW 6.8 mph 11.8 mph 59% 0 in 388.00 W/m2 unknown
14:33 87.8 °F 71.6 °F 29.9 in West 6.2 mph 11.8 mph 59% 0 in 346.00 W/m2 unknown
14:39 87.8 °F 71.6 °F 29.9 in West 6.2 mph 11.8 mph 60% 0 in 334.00 W/m2 unknown
14:44 86 °F 69.8 °F 29.9 in SW 6.8 mph 10.6 mph 60% 0 in 243.00 W/m2 unknown
14:49 86 °F 69.8 °F 29.9 in WSW 6.2 mph 9.9 mph 60% 0 in 165.00 W/m2 unknown
14:54 86 °F 69.8 °F 29.9 in WSW 6.2 mph 9.3 mph 62% 0 in 178.00 W/m2 unknown
14:59 86 °F 71.6 °F 29.9 in WSW 6.2 mph 8.7 mph 64% 0 in 200.00 W/m2 unknown
15:04 86 °F 71.6 °F 29.9 in WSW 5 mph 6.2 mph 65% 0 in 200.00 W/m2 unknown
15:09 84.2 °F 71.6 °F 29.9 in WSW 3.7 mph 6.2 mph 65% 0 in 183.00 W/m2 unknown
15:14 84.2 °F 71.6 °F 29.9 in WSW 3.7 mph 6.2 mph 64% 0 in 209.00 W/m2 unknown
15:19 84.2 °F 69.8 °F 29.9 in WSW 3.7 mph 5 mph 64% 0 in 216.00 W/m2 unknown
15:24 84.2 °F 71.6 °F 29.9 in WSW 3.1 mph 5 mph 64% 0 in 214.00 W/m2 unknown
15:29 84.2 °F 71.6 °F 29.9 in WSW 3.1 mph 5 mph 66% 0 in 181.00 W/m2 unknown
15:34 84.2 °F 71.6 °F 29.9 in West 5.6 mph 9.3 mph 65% 0 in 332.00 W/m2 unknown
15:39 86 °F 71.6 °F 29.9 in West 6.8 mph 9.3 mph 65% 0 in 461.00 W/m2 unknown
15:44 86 °F 71.6 °F 29.9 in WSW 6.2 mph 9.3 mph 65% 0 in 563.00 W/m2 unknown
15:49 86 °F 71.6 °F 29.9 in West 7.5 mph 13 mph 63% 0 in 865.00 W/m2 unknown
15:54 87.8 °F 71.6 °F 29.9 in WSW 8.1 mph 13 mph 61% 0 in 830.00 W/m2 unknown
15:59 87.8 °F 71.6 °F 29.9 in WSW 6.8 mph 13 mph 61% 0 in 796.00 W/m2 unknown
16:04 87.8 °F 71.6 °F 29.9 in WSW 8.7 mph 11.8 mph 59% 0 in 796.00 W/m2 unknown
16:09 87.8 °F 71.6 °F 29.9 in SW 8.7 mph 11.8 mph 60% 0 in 715.00 W/m2 unknown
16:14 87.8 °F 71.6 °F 29.9 in SW 8.7 mph 11.8 mph 59% 0 in 715.00 W/m2 unknown
16:18 87.8 °F 71.6 °F 29.9 in WSW 8.1 mph 11.8 mph 58% 0 in 613.00 W/m2 unknown
16:24 87.8 °F 69.8 °F 29.9 in SW 7.5 mph 11.8 mph 57% 0 in 840.00 W/m2 unknown
16:29 87.8 °F 69.8 °F 29.9 in SW 7.5 mph 11.8 mph 54% 0 in 691.00 W/m2 unknown
16:34 87.8 °F 69.8 °F 29.9 in SW 7.5 mph 11.8 mph 54% 0 in 701.00 W/m2 unknown
16:39 87.8 °F 68 °F 29.9 in SW 7.5 mph 11.8 mph 54% 0 in 450.00 W/m2 unknown
16:44 87.8 °F 69.8 °F 29.9 in SW 6.8 mph 10.6 mph 55% 0 in 506.00 W/m2 unknown
16:49 87.8 °F 69.8 °F 29.9 in WSW 6.2 mph 10.6 mph 55% 0 in 538.00 W/m2 unknown
16:54 87.8 °F 69.8 °F 29.9 in WSW 6.8 mph 10.6 mph 56% 0 in 538.00 W/m2 unknown
16:59 87.8 °F 69.8 °F 29.9 in WSW 6.2 mph 9.9 mph 56% 0 in 362.00 W/m2 unknown
17:04 87.8 °F 69.8 °F 29.9 in WSW 5 mph 6.8 mph 58% 0 in 675.00 W/m2 unknown
17:09 87.8 °F 69.8 °F 29.9 in SW 4.3 mph 6.8 mph 58% 0 in 679.00 W/m2 unknown
17:14 87.8 °F 69.8 °F 29.9 in SW 5 mph 6.8 mph 56% 0 in 534.00 W/m2 unknown
17:19 87.8 °F 69.8 °F 29.9 in SSW 5.6 mph 9.3 mph 56% 0 in 497.00 W/m2 unknown
17:24 87.8 °F 69.8 °F 29.9 in South 8.1 mph 13 mph 56% 0 in 287.00 W/m2 unknown
17:29 87.8 °F 69.8 °F 29.9 in SSW 8.7 mph 13 mph 56% 0 in 694.00 W/m2 unknown
17:34 87.8 °F 69.8 °F 29.9 in South 8.1 mph 13 mph 55% 0 in 621.00 W/m2 unknown
17:39 87.8 °F 68 °F 29.9 in SSW 8.7 mph 11.8 mph 53% 0 in 547.00 W/m2 unknown
17:44 87.8 °F 68 °F 29.9 in SW 8.1 mph 11.8 mph 53% 0 in 494.00 W/m2 unknown
17:49 87.8 °F 68 °F 29.9 in WSW 8.1 mph 11.8 mph 52% 0 in 478.00 W/m2 unknown
17:54 87.8 °F 68 °F 29.9 in SSW 6.8 mph 11.8 mph 51% 0 in 515.00 W/m2 unknown
17:59 87.8 °F 68 °F 29.9 in SW 6.2 mph 8.1 mph 50% 0 in 515.00 W/m2 unknown
18:04 87.8 °F 68 °F 29.9 in SSW 7.5 mph 9.3 mph 51% 0 in 480.00 W/m2 unknown
18:09 87.8 °F 68 °F 29.9 in South 7.5 mph 9.3 mph 52% 0 in 464.00 W/m2 unknown
18:14 87.8 °F 68 °F 29.9 in SW 6.8 mph 14.3 mph 52% 0 in 455.00 W/m2 unknown
18:19 87.8 °F 68 °F 29.8 in SSW 8.1 mph 14.3 mph 52% 0 in 394.00 W/m2 unknown
18:24 87.8 °F 68 °F 29.8 in SSW 8.7 mph 14.3 mph 51% 0 in 359.00 W/m2 unknown
18:29 87.8 °F 68 °F 29.8 in SSW 9.3 mph 12.4 mph 51% 0 in 345.00 W/m2 unknown
18:34 87.8 °F 68 °F 29.8 in SSW 9.3 mph 14.9 mph 51% 0 in 329.00 W/m2 unknown
18:39 87.8 °F 68 °F 29.8 in SSW 9.3 mph 13.7 mph 52% 0 in 322.00 W/m2 unknown
18:44 87.8 °F 68 °F 29.8 in SW 8.7 mph 14.3 mph 51% 0 in 339.00 W/m2 unknown
18:49 87.8 °F 68 °F 29.8 in SW 8.7 mph 11.8 mph 51% 0 in 336.00 W/m2 unknown
18:54 87.8 °F 68 °F 29.8 in SW 8.1 mph 11.8 mph 52% 0 in 334.00 W/m2 unknown
18:59 87.8 °F 68 °F 29.8 in SW 7.5 mph 11.8 mph 52% 0 in 323.00 W/m2 unknown
19:04 87.8 °F 68 °F 29.8 in SW 7.5 mph 11.8 mph 53% 0 in 287.00 W/m2 unknown
19:09 87.8 °F 68 °F 29.8 in SSW 7.5 mph 11.8 mph 53% 0 in 239.00 W/m2 unknown
19:14 87.8 °F 68 °F 29.8 in South 8.1 mph 11.8 mph 53% 0 in 220.00 W/m2 unknown
19:19 87.8 °F 68 °F 29.8 in South 8.1 mph 11.8 mph 54% 0 in 209.00 W/m2 unknown
19:24 87.8 °F 68 °F 29.8 in SW 8.1 mph 11.8 mph 55% 0 in 192.00 W/m2 unknown
19:29 86 °F 68 °F 29.8 in SW 8.1 mph 11.8 mph 55% 0 in 181.00 W/m2 unknown
19:34 86 °F 68 °F 29.8 in WSW 7.5 mph 10.6 mph 56% 0 in 165.00 W/m2 unknown
19:39 86 °F 68 °F 29.8 in SW 6.8 mph 10.6 mph 56% 0 in 153.00 W/m2 unknown
19:44 86 °F 68 °F 29.8 in SW 5.6 mph 8.1 mph 56% 0 in 135.00 W/m2 unknown
19:49 86 °F 68 °F 29.8 in SSW 6.2 mph 10.6 mph 56% 0 in 120.00 W/m2 unknown
19:54 86 °F 68 °F 29.8 in SW 6.8 mph 10.6 mph 56% 0 in 105.00 W/m2 unknown
19:59 86 °F 68 °F 29.8 in SSW 6.8 mph 9.9 mph 57% 0 in 91.00 W/m2 unknown
20:04 86 °F 68 °F 29.8 in South 6.8 mph 9.3 mph 57% 0 in 81.00 W/m2 unknown
20:09 84.2 °F 68 °F 29.8 in SSW 11.2 mph 18.6 mph 56% 0 in 69.00 W/m2 unknown
20:14 84.2 °F 68 °F 29.8 in SSW 11.8 mph 18.6 mph 56% 0 in 28.00 W/m2 unknown
20:19 84.2 °F 66.2 °F 29.8 in SW 11.2 mph 18.6 mph 55% 0 in 23.00 W/m2 unknown
20:24 84.2 °F 66.2 °F 29.8 in SSW 9.9 mph 14.3 mph 56% 0 in 25.00 W/m2 unknown
20:29 84.2 °F 66.2 °F 29.8 in SW 8.1 mph 11.8 mph 56% 0 in 25.00 W/m2 unknown
20:34 84.2 °F 66.2 °F 29.8 in SSW 6.8 mph 9.9 mph 57% 0 in 23.00 W/m2 unknown
20:39 84.2 °F 66.2 °F 29.8 in SSW 6.2 mph 8.1 mph 58% 0 in 21.00 W/m2 unknown
20:44 84.2 °F 66.2 °F 29.8 in SSW 6.2 mph 6.8 mph 58% 0 in 16.00 W/m2 unknown
20:49 82.4 °F 66.2 °F 29.8 in SW 5.6 mph 8.1 mph 58% 0 in 7.00 W/m2 unknown
20:54 82.4 °F 66.2 °F 29.8 in SW 5 mph 8.1 mph 58% 0 in 5.00 W/m2 unknown
20:59 82.4 °F 66.2 °F 29.8 in SW 5 mph 8.1 mph 59% 0 in 5.00 W/m2 unknown
21:04 82.4 °F 66.2 °F 29.8 in SW 3.1 mph 5 mph 60% 0 in 0.00 W/m2 unknown
21:09 82.4 °F 66.2 °F 29.8 in SSW 2.5 mph 5 mph 61% 0 in 0.00 W/m2 unknown
21:14 82.4 °F 66.2 °F 29.8 in SW 4.3 mph 8.1 mph 61% 0 in 0.00 W/m2 unknown
21:19 80.6 °F 66.2 °F 29.8 in SSW 5.6 mph 8.1 mph 61% 0 in 0.00 W/m2 unknown
21:24 80.6 °F 66.2 °F 29.8 in SW 5.6 mph 9.3 mph 61% 0 in 0.00 W/m2 unknown
21:29 80.6 °F 66.2 °F 29.8 in SW 6.2 mph 9.3 mph 61% 0 in 0.00 W/m2 unknown
21:33 80.6 °F 66.2 °F 29.8 in SSW 6.2 mph 9.3 mph 61% 0 in 0.00 W/m2 unknown
21:39 80.6 °F 66.2 °F 29.8 in WSW 6.2 mph 9.3 mph 61% 0 in 0.00 W/m2 unknown
21:44 80.6 °F 66.2 °F 29.8 in WSW 6.2 mph 8.7 mph 61% 0 in 0.00 W/m2 unknown
21:49 80.6 °F 66.2 °F 29.8 in WSW 6.2 mph 8.1 mph 62% 0 in 0.00 W/m2 unknown
21:54 80.6 °F 66.2 °F 29.8 in WSW 6.2 mph 8.1 mph 63% 0 in 0.00 W/m2 unknown
21:59 80.6 °F 66.2 °F 29.8 in WSW 5.6 mph 9.3 mph 63% 0 in 0.00 W/m2 unknown
22:04 80.6 °F 66.2 °F 29.8 in WSW 6.2 mph 9.3 mph 63% 0 in 0.00 W/m2 unknown
22:09 80.6 °F 66.2 °F 29.8 in SW 5 mph 8.7 mph 63% 0 in 0.00 W/m2 unknown
22:14 80.6 °F 66.2 °F 29.8 in SW 5 mph 6.8 mph 63% 0 in 0.00 W/m2 unknown
22:19 78.8 °F 66.2 °F 29.8 in SW 5.6 mph 8.1 mph 63% 0 in 0.00 W/m2 unknown
22:24 78.8 °F 66.2 °F 29.8 in SW 5.6 mph 8.1 mph 63% 0 in 0.00 W/m2 unknown
22:29 78.8 °F 66.2 °F 29.8 in SW 5 mph 8.1 mph 64% 0 in 0.00 W/m2 unknown
22:34 78.8 °F 66.2 °F 29.8 in WSW 6.2 mph 10.6 mph 64% 0 in 0.00 W/m2 unknown
22:39 78.8 °F 66.2 °F 29.8 in SW 6.2 mph 10.6 mph 64% 0 in 0.00 W/m2 unknown
22:44 78.8 °F 66.2 °F 29.8 in SW 6.2 mph 9.9 mph 64% 0 in 0.00 W/m2 unknown
22:49 78.8 °F 66.2 °F 29.8 in SW 5 mph 8.1 mph 64% 0 in 0.00 W/m2 unknown
22:54 78.8 °F 66.2 °F 29.8 in SW 5 mph 8.1 mph 64% 0 in 0.00 W/m2 unknown
22:59 78.8 °F 66.2 °F 29.8 in SSW 6.2 mph 8.1 mph 64% 0 in 0.00 W/m2 unknown
23:04 78.8 °F 66.2 °F 29.8 in SSW 6.2 mph 8.1 mph 65% 0 in 0.00 W/m2 unknown
23:09 78.8 °F 66.2 °F 29.8 in SW 6.2 mph 6.8 mph 65% 0 in 0.00 W/m2 unknown
23:14 78.8 °F 66.2 °F 29.8 in SW 5 mph 6.8 mph 66% 0 in 0.00 W/m2 unknown
23:19 78.8 °F 66.2 °F 29.8 in SW 7.5 mph 8.7 mph 66% 0 in 0.00 W/m2 unknown
23:24 78.8 °F 66.2 °F 29.8 in SW 7.5 mph 9.3 mph 66% 0 in 0.00 W/m2 unknown
23:29 78.8 °F 66.2 °F 29.8 in SW 6.8 mph 10.6 mph 66% 0 in 0.00 W/m2 unknown
23:34 78.8 °F 66.2 °F 29.8 in SSW 6.2 mph 10.6 mph 67% 0 in 0.00 W/m2 unknown
23:39 78.8 °F 66.2 °F 29.8 in SSW 6.2 mph 10.6 mph 67% 0 in 0.00 W/m2 unknown
23:44 77 °F 66.2 °F 29.8 in SSW 6.2 mph 9.9 mph 68% 0 in 0.00 W/m2 unknown
23:49 77 °F 66.2 °F 29.8 in SW 5 mph 6.8 mph 68% 0 in 0.00 W/m2 unknown
23:54 77 °F 66.2 °F 29.8 in SW 5 mph 6.2 mph 69% 0 in 0.00 W/m2 unknown
23:59 77 °F 66.2 °F 29.8 in SSW 4.3 mph 6.2 mph 69% 0 in 0.00 W/m2 unknown
Stazione Meteorologica MeteoMincio Rivalta s/M (MN)
Con i complimenti di Weather Underground - 4 mb



METEO PILLOLE
Maggior quantità di pioggia caduta in 12 mesi
Cherrapunji (1313 m) - India
tra il 1 agosto 1860 e il 31 luglio 1861 sono caduti 26466.8 mm .
Share

Non seguire questo link o sarai bannato dal sito!